Zurück zum Katalog

STARLINK-34939

AktivKommunikationSSO
NORAD 65183·PAYLOAD·🇺🇸 United States

Gestartet Aug 14, 2025 von Vandenberg Space Force Base

Loading…

Nächste Überflüge (nächste 24 Stunden)

TLE

AktuellSource: CelesTrak SupGP

Epoche: Sep 15, 2026, 03:00 UTC

1 65183C 25175K   26258.12548611  .00034149  00000+0  10583-2 0  2581
2 65183  97.2846 127.2478 0001821  96.9571 264.9376 15.33474278    13

Verfolge STARLINK-34939 in Echtzeit mit AllMySat

Download on the App Store